Content
SEND FEEDBACK

Daily
Averages
Monthly
Summary
United States of America

ROME, GEORGIA


Home > North America > United States > Georgia
Elevation: 196 meters     Latitude: 34 20N     Longitude: 085 09W

WEATHER
 
SELECT A DAY
Number of Records: 214,078;   Date Range: 1/1/95 - 10/19/14
 
SHARE

PRINT THIS DATA

[ ← Previous Day ]
WEATHER ALMANAC - 18 AUGUST, 2014
[ Next Day → ]
[ °F ]   °C
Weather ElementAverageHighLow
Temperature23.9 °C31.7 °C (7:53 pm)21 °C (11:53 pm)
Dewpoint21.4 °C22.2 °C (12:03 pm)20.6 °C (10:53 pm)
Humidity86.8 %100 % (4:53 pm)55 % (2:53 pm)
Barometer1013.2 hPa1016.6 hPa (12:53 am)1010.8 hPa (3:53 pm)
Wind Speed6 km/h27.8 km/h (4:53 pm)
Wind Gust37 km/h (4:53 pm)
Weather ElementAverage
Visibility14.6 km
Wind DirectionESE (117.5 °)

Weather ElementTotal
Precipitation0.25 mm
Cooling Degree Days8.1 (Base 18.3)
Growing Degree Days16.4 (Base 10)
Averaged from 32 records on 18 August, 2014
WEATHER CONDITIONS BREAKOUT
WIND DIRECTION BREAKOUT
WEATHER BY HOUR - 18 AUGUST, 2014
[ °F ]   °C
Local TimeTemperatureDewpointHumidityBarometerVisibilityWind DirectionWind SpeedGust SpeedPrecipitationEventsConditions
12:53 AM22.2 °C21.1 °C93 %1013.9 hPa14.5 kmCalmClear
1:53 AM22.2 °C21.1 °C93 %1013.5 hPa14.5 kmCalmClear
2:53 AM21.7 °C20.6 °C93 %1013.2 hPa12.9 kmCalmClear
3:53 AM21.7 °C21.1 °C96 %1013.2 hPa12.9 kmSouth (190°)5.6 km/hPartly Cloudy
4:53 AM22.2 °C21.1 °C93 %1013.2 hPa16.1 kmCalmMostly Cloudy
5:53 AM22.2 °C21.7 °C97 %1012.9 hPa12.9 kmSouth (190°)5.6 km/h0 mmMostly Cloudy
6:53 AM22.2 °C21.7 °C97 %1013.2 hPa11.3 kmCalmMostly Cloudy
7:53 AM22.8 °C22.2 °C96 %1013.9 hPa8 kmSSW (200°)5.6 km/hPartly Cloudy
8:08 AM22.8 °C22.2 °C96 %1014.9 hPa9.7 kmWSW (250°)7.4 km/hPartly Cloudy
8:28 AM23.9 °C22.2 °C90 %1015.6 hPa14.5 kmWest (280°)7.4 km/hMostly Cloudy
8:41 AM23.9 °C22.2 °C90 %1015.6 hPa14.5 kmNNW (330°)5.6 km/hOvercast
8:53 AM23.3 °C22.2 °C93 %1014.6 hPa14.5 kmCalmOvercast
8:59 AM23.3 °C22.2 °C93 %1015.6 hPa14.5 kmNE (40°)5.6 km/hOvercast
9:53 AM23.9 °C21.7 °C87 %1015.6 hPa16.1 kmNNE (20°)11.1 km/hMostly Cloudy
10:00 AM23.9 °C21.7 °C87 %1016.6 hPa16.1 kmNNE (20°)7.4 km/hScattered Clouds
10:53 AM24.4 °C21.1 °C82 %1015.6 hPa16.1 kmVariable5.6 km/hMostly Cloudy
11:53 AM26.7 °C20.6 °C69 %1014.6 hPa16.1 kmCalmClear
12:53 PM28.3 °C21.7 °C67 %1013.2 hPa16.1 kmSSW (200°)11.1 km/hClear
1:53 PM29.4 °C22.2 °C65 %1012.2 hPa16.1 kmVariable11.1 km/hClear
2:53 PM31.7 °C21.7 °C55 %1011.2 hPa16.1 kmSW (220°)16.7 km/hScattered Clouds
3:53 PM30.6 °C21.1 °C57 %1010.8 hPa16.1 kmWest (260°)13 km/hPartly Cloudy
4:53 PM28.3 °C20.6 °C63 %1011.2 hPa16.1 kmWNW (300°)27.8 km/h37 km/hMostly Cloudy
5:53 PM23.3 °C20.6 °C85 %1011.9 hPa11.3 kmSW (230°)13 km/h0.25 mmRainLight Rain
6:11 PM22.8 °C21.1 °C90 %1012.9 hPa16.1 kmSSW (210°)5.6 km/h0 mmRain-ThunderstormLight Rain
6:22 PM22.8 °C21.1 °C90 %1012.9 hPa16.1 kmCalm0 mmRain-ThunderstormLight Thunderstorms and Rain
6:46 PM22.8 °C21.1 °C90 %1012.5 hPa16.1 kmWSW (250°)5.6 km/h0 mmOvercast
6:53 PM22.8 °C21.7 °C93 %1011.9 hPa16.1 kmCalm0 mmOvercast
7:53 PM22.8 °C21.1 °C90 %1011.2 hPa16.1 kmSSE (160°)7.4 km/hClear
8:53 PM22.2 °C21.1 °C93 %1011.5 hPa16.1 kmSSW (210°)5.6 km/h0 mmClear
9:53 PM21.7 °C21.1 °C96 %1011.9 hPa16.1 kmSSW (200°)5.6 km/hClear
10:53 PM21.1 °C20.6 °C97 %1012.2 hPa16.1 kmCalmPartly Cloudy
11:53 PM21 °C21 °C100 %1012.5 hPa14.5 kmCalmClear
Hourly data recorded from KRMG, located 0 kilometers away from Rome, Georgia







STORIES FROM OUR PARTNERS